Location: *
(47.7167°N, 1.7333°W)
Time: 23:09:34
(UTC+00:00)

STARLINK-1236 - Pass Details

Date: 09 April 2020
Orbit: 549 x 550 km, 53.0° (Epoch: 24 May)

Event Time Altitude Azimuth Distance (km) Brightness Sun altitude
Rises 21:08:01 0° 297° (WNW) 2,724 8.5 -21.6°
Reaches altitude 10° 21:10:17 10° 293° (WNW) 1,828 7.3 -21.9°
Maximum altitude 21:14:22 58° 215° (SW) 647 3.8 -22.4°
Enters shadow 21:14:22 58° 214° (SW) 647 3.8 -22.4°
